"Pseudo-MPEC" for C0GRPU5

Created 2023 Mar 23 6:22:04 UT using Find_Orb

Click here for an explanation of pseudo-MPECs

 
 Astrometry: 
     C0GRPU5* C2023 03 18x]k,f_LKA]gRR[khnB@p#`AstrometryYg\w7@redacted;`P\8gV00
     C0GRPU5  C2023 03 18'y-AK2b.yn:4:\)6#S9=3'0r@K#Vcj7bRXgd@vi6R)M5?PiYG:!2V00
     C0GRPU5  C2023 03 182A75Q!clickZi=2!+Pv[neK!Hx6A(%TP'nQn[M+herepX,*!$p#/V00
     C0GRPU5  C2023 03 18GyDooforpfn--P2bZ:0fbk9mKTFMX=PA)e3G4*g(7explanationV00

Station data:
(V00) Kitt Peak-Bok  (N31.963125 W111.600190)  US/Arizona.  Observers T. A.
   Pruyne, B. M. Africano, E. J. Christensen, G. A. Farneth, D. C. Fuls, A.
   R. Gibbs, A. D. Grauer, H. Gröller, J. A. Johnson, R. A. Kowalski, S. M.
   Larson, G. J. Leonard, D. Rankin, R. L. Seaman, F. C. Shelly, K. W.
   Wierzchoś. 2.25-m reflector + CCD.

Orbital elements:  C0GRPU5
   Perihelion 2023 Jun 2.00450 +/- 61 TT =  0:06:29 (JD 2460097.50450)
Epoch 2023 Mar 18.0 TT = JDT 2460021.5   Earth MOID: 0.2149   Ma: 0.0773
M 307.17239021 +/- 70               (J2000 ecliptic)             AutoNEOCP
n   0.69505894 +/- 0.534            Peri.   59.41891 +/- 110
a   1.26218095 +/- 0.646            Node   169.61238 +/- 3.7
e   0.0740796 +/- 0.279             Incl.   39.05234 +/- 26
P   1.42/517.93d           H 22.91  G  0.15   U 12.3  SR
q 1.16867902 +/- 0.438    Q 1.35568289 +/- 19
From 4 observations 2023 Mar. 18 (23.8 min); mean residual 0".12
Residuals in arcseconds: 
230318 V00  .09+  .14-    230318 V00  .03+  .06-    
230318 V00  .14-  .23+    230318 V00  .03+  .04-    

Ephemerides (geocentric):
Date (UTC) HH   RA             Dec           delta  r     elong  mag " sig PA
---- --------  ------------   ------------  ------ ------ -----  --- --------
2023 03 23 06  09 21 56.584   +25 06 18.15  .28287 1.2053 132.3 22.1 972'   1
2023 03 23 07  09 21 56.893   +25 11 12.93  .28310 1.2053 132.3 22.1 980'   0
2023 03 23 08  09 21 57.210   +25 16 07.18  .28333 1.2052 132.2 22.2 993' 179
2023 03 23 09  09 21 57.535   +25 21 00.90  .28355 1.2052 132.1 22.2  17d 177
2023 03 23 10  09 21 57.867   +25 25 54.10  .28378 1.2052 132.0 22.2  18d 175
2023 03 23 11  09 21 58.208   +25 30 46.77  .28401 1.2051 132.0 22.2  18d 174
2023 03 23 12  09 21 58.558   +25 35 38.92  .28424 1.2051 131.9 22.2  19d 173
2023 03 23 13  09 21 58.915   +25 40 30.53  .28447 1.2050 131.8 22.2  20d 172
2023 03 23 14  09 21 59.280   +25 45 21.62  .28470 1.2050 131.7 22.2  20d 173
2023 03 23 15  09 21 59.653   +25 50 12.18  .28493 1.2050 131.7 22.2  21d 173
2023 03 23 16  09 22 00.034   +25 55 02.21  .28516 1.2049 131.6 22.2  21d 173
2023 03 23 17  09 22 00.423   +25 59 51.72  .28540 1.2049 131.5 22.2  21d 173
2023 03 23 18  09 22 00.821   +26 04 40.69  .28563 1.2049 131.4 22.2  21d 174
2023 03 23 19  09 22 01.226   +26 09 29.14  .28586 1.2048 131.4 22.2  22d 174
2023 03 23 20  09 22 01.640   +26 14 17.06  .28610 1.2048 131.3 22.2  22d 174
2023 03 23 21  09 22 02.061   +26 19 04.45  .28633 1.2047 131.2 22.2  22d 175
2023 03 23 22  09 22 02.491   +26 23 51.31  .28657 1.2047 131.1 22.2  22d 175
2023 03 23 23  09 22 02.929   +26 28 37.64  .28680 1.2047 131.0 22.2  22d 175
2023 03 24 00  09 22 03.374   +26 33 23.45  .28704 1.2046 131.0 22.2  22d 176
2023 03 24 01  09 22 03.828   +26 38 08.72  .28728 1.2046 130.9 22.2  22d 176
2023 03 24 02  09 22 04.290   +26 42 53.47  .28752 1.2045 130.8 22.2  22d 176
2023 03 24 03  09 22 04.760   +26 47 37.68  .28776 1.2045 130.7 22.2  22d 177
2023 03 24 04  09 22 05.238   +26 52 21.37  .28799 1.2045 130.7 22.2  22d 177
2023 03 24 05  09 22 05.724   +26 57 04.53  .28823 1.2044 130.6 22.2  22d 177
2023 03 24 06  09 22 06.218   +27 01 47.16  .28848 1.2044 130.5 22.2  22d 178
2023 03 24 07  09 22 06.720   +27 06 29.26  .28872 1.2043 130.4 22.2  22d 178
2023 03 24 08  09 22 07.230   +27 11 10.83  .28896 1.2043 130.4 22.2  22d 178
2023 03 24 09  09 22 07.748   +27 15 51.87  .28920 1.2043 130.3 22.2  22d 178
2023 03 24 10  09 22 08.275   +27 20 32.38  .28944 1.2042 130.2 22.2  22d 179
2023 03 24 11  09 22 08.809   +27 25 12.37  .28969 1.2042 130.1 22.2  22d 179
2023 03 24 12  09 22 09.352   +27 29 51.82  .28993 1.2042 130.1 22.2  22d 179
2023 03 24 13  09 22 09.902   +27 34 30.75  .29018 1.2041 130.0 22.2  22d 179
2023 03 24 14  09 22 10.461   +27 39 09.14  .29042 1.2041 129.9 22.2  22d 179
2023 03 24 15  09 22 11.027   +27 43 47.01  .29067 1.2040 129.9 22.3  22d   0
2023 03 24 16  09 22 11.602   +27 48 24.35  .29091 1.2040 129.8 22.3  22d   0
2023 03 24 17  09 22 12.185   +27 53 01.16  .29116 1.2040 129.7 22.3  22d   0
2023 03 24 18  09 22 12.776   +27 57 37.44  .29141 1.2039 129.6 22.3  22d   0
2023 03 24 19  09 22 13.375   +28 02 13.20  .29166 1.2039 129.6 22.3  22d   0
2023 03 24 20  09 22 13.982   +28 06 48.42  .29190 1.2038 129.5 22.3  22d   0
2023 03 24 21  09 22 14.597   +28 11 23.12  .29215 1.2038 129.4 22.3  22d   0
2023 03 24 22  09 22 15.220   +28 15 57.29  .29240 1.2038 129.3 22.3  22d   0
2023 03 24 23  09 22 15.851   +28 20 30.93  .29265 1.2037 129.3 22.3  22d   0
2023 03 25 00  09 22 16.490   +28 25 04.05  .29291 1.2037 129.2 22.3  22d   1
2023 03 25 01  09 22 17.138   +28 29 36.63  .29316 1.2036 129.1 22.3  22d   1
2023 03 25 02  09 22 17.793   +28 34 08.69  .29341 1.2036 129.0 22.3  22d   1
2023 03 25 03  09 22 18.456   +28 38 40.22  .29366 1.2036 129.0 22.3  22d   1
2023 03 25 04  09 22 19.128   +28 43 11.23  .29392 1.2035 128.9 22.3  23d   1
2023 03 25 05  09 22 19.808   +28 47 41.70  .29417 1.2035 128.8 22.3  23d   1